Location: Unspecified
(0.0000°N, 0.0000°E)
Time: 11:36:00
(UTC+00:00)

SEEDS - Pass Details

Date: 04 October 2021
Orbit: 585 x 601 km, 97.6° (Epoch: 15 October)

Event Time Altitude Azimuth Distance (km) Brightness Sun altitude
Rises 05:02:51 0° 342° (NNW) 2,833 ? -11.4°
Reaches altitude 10° 05:05:42 10° 321° (NW) 1,933 ? -10.7°
Maximum altitude 05:08:20 16° 282° (WNW) 1,564 ? -10.1°
Drops below altitude 10° 05:10:58 10° 242° (WSW) 1,936 ? -9.4°
Sets 05:13:50 0° 221° (SW) 2,839 ? -8.7°
